Helicity
74 92 83 56 50 46 48 49 54 57 68 69 72 70 65 68 80 125 86 65 41 90 103 97 83 88 107 97 91 88 76 82 57 24 30 33 42 37 48 45 34 28 27
95 103 62 52 48 48 48 56 56 63 80 87 79 73 76 77 137 105 76 66 74 90 91 93 98 105 70 80 81 68 61 54 59 10 5 21 33 54 47 45 52 36 35
106 79 56 48 49 41 49 63 60 68 85 85 83 79 83 113 124 95 82 75 98 97 113 127 131 86 90 93 88 82 73 53 51 34 12 27 35 54 43 37 43 45 37
90 71 57 48 49 45 60 64 61 81 96 99 85 86 93 140 118 86 73 89 93 100 88 65 52 59 48 84 67 70 72 71 54 38 15 16 23 48 52 55 68 47 55
79 65 54 58 64 59 63 74 75 93 97 96 80 91 97 129 94 77 89 101 101 86 71 56 57 27 11 13 39 49 49 45 39 26 9 15 12 24 35 30 53 45 69
78 66 57 55 61 64 67 82 90 92 86 82 76 95 96 94 82 60 82 98 111 106 86 65 61 27 12 -0 10 -0 20 32 44 12 8 13 28 21 13 7 38 58 81
72 61 58 56 65 68 70 66 72 65 84 80 78 101 80 89 64 61 59 92 100 114 94 86 75 70 50 88 71 47 44 31 24 1 5 19 51 35 11 18 35 41 55
61 55 52 56 73 61 45 55 48 49 87 80 85 104 73 96 62 64 51 96 104 90 92 109 106 121 131 105 55 67 65 42 23 -2 -3 27 24 20 26 29 26 34 44
50 52 51 58 61 51 36 46 41 65 82 87 97 94 86 105 67 75 80 121 118 99 124 151 118 134 93 56 64 83 85 87 41 24 15 17 20 23 25 29 32 9 43
41 38 56 55 63 63 49 38 55 81 99 114 107 99 68 113 83 81 84 161 140 143 153 169 133 131 124 112 121 127 83 69 38 8 8 9 40 32 49 41 26 14 69
41 41 48 59 58 83 58 59 76 95 113 135 128 123 120 112 130 73 63 132 148 170 177 185 179 164 164 186 146 111 49 52 13 21 32 30 31 38 24 34 36 28 85
42 41 51 53 47 70 64 76 102 118 120 113 122 125 135 144 108 103 74 51 97 167 178 175 186 162 178 184 183 157 116 66 45 49 59 58 43 40 43 34 32 55 98
32 22 48 46 50 56 69 86 122 129 124 112 121 141 172 181 182 116 122 79 85 165 161 140 154 168 179 210 204 180 159 127 95 78 76 76 57 38 15 31 54 94 134
49 35 42 40 52 63 86 103 125 128 114 110 128 156 183 181 184 155 180 133 121 152 163 181 173 167 170 191 223 211 199 165 119 108 83 66 61 54 59 72 91 147 103
58 53 36 43 66 82 90 116 123 121 123 106 165 188 196 167 160 85 78 112 126 144 157 184 206 233 232 252 254 233 216 200 156 132 109 104 93 87 70 97 130 108 102
51 61 57 48 70 80 75 82 76 96 114 78 84 124 139 93 68 62 58 46 84 101 159 198 218 233 237 256 251 234 220 228 219 167 135 124 121 104 108 119 107 96 105
49 60 69 53 55 76 63 47 67 92 67 69 82 78 69 63 63 60 62 69 67 128 165 206 227 235 254 254 257 237 237 252 235 189 179 172 159 123 105 108 126 101 132
43 61 70 44 56 84 70 31 82 86 92 101 97 89 74 63 67 54 71 113 173 166 189 216 226 239 244 246 264 254 255 255 249 210 200 194 185 154 120 120 116 108 128
43 50 50 41 56 81 64 51 80 76 82 89 101 109 108 76 79 65 77 125 144 160 197 200 217 236 240 235 269 278 258 236 253 235 227 217 226 206 139 129 134 122 154
55 51 47 50 48 67 53 49 47 54 72 86 95 102 119 116 119 127 136 151 141 150 188 188 215 228 230 212 248 302 301 259 254 247 222 224 227 227 157 127 170 170 150
72 63 42 60 46 61 68 54 51 33 55 82 96 97 72 103 116 116 131 134 145 139 161 186 203 226 246 235 206 248 278 280 287 280 251 249 239 256 188 138 118 154 148
78 59 47 42 46 54 57 55 55 59 40 55 87 92 69 106 117 117 126 130 140 150 144 149 156 194 221 251 240 216 222 227 239 252 240 232 223 233 205 165 137 110 131
95 95 68 51 46 55 63 60 51 66 57 59 75 86 95 111 114 120 124 131 143 145 152 150 124 140 186 216 211 211 197 170 167 175 188 197 192 193 190 177 160 131 123
107 98 81 67 61 57 46 46 50 44 60 74 85 82 95 99 101 110 125 128 123 126 134 138 129 80 117 152 187 180 166 146 123 122 98 121 123 134 132 144 151 156 132
91 85 74 78 70 64 59 50 49 49 50 60 72 91 102 113 118 119 116 118 120 115 110 114 114 95 67 88 111 121 147 144 96 82 68 49 80 106 107 109 116 125 140
101 83 73 70 64 59 60 61 60 56 53 64 81 97 116 144 161 153 136 108 111 113 99 113 106 98 81 64 68 90 98 108 85 56 25 18 22 63 80 94 111 98 113
Wind_Speed
62 62 66 70 69 70 71 70 69 69 69 68 69 67 69 72 72 66 72 79 86 77 67 60 56 52 49 46 46 46 48 50 65 65 61 64 66 68 69 68 70 71 74
63 64 69 70 68 71 72 70 68 71 69 66 67 66 68 72 65 71 79 85 86 76 67 60 52 49 46 42 45 46 48 53 58 71 68 66 66 66 69 70 69 70 70
64 66 69 70 68 73 73 70 71 72 71 66 66 68 68 69 69 77 81 85 80 68 61 51 46 46 44 41 39 42 46 50 57 64 68 65 65 64 66 67 67 67 68
65 67 70 72 70 73 72 72 74 72 69 67 68 70 68 66 75 80 85 85 75 65 59 56 53 48 45 36 37 38 39 44 54 61 67 67 64 62 60 62 63 60 63
66 68 71 71 69 72 73 73 71 70 67 68 70 73 69 71 78 87 90 82 69 63 60 56 49 45 47 47 43 42 42 49 58 65 67 64 64 61 57 50 55 57 59
67 70 70 72 71 73 73 73 71 71 74 74 78 77 73 72 85 95 93 76 65 59 57 53 50 46 48 42 35 27 18 19 22 61 63 62 63 61 53 50 54 53 51
68 69 70 71 70 71 74 74 74 79 78 78 82 78 75 76 91 95 88 73 63 58 57 54 51 47 40 30 21 12 7 25 37 53 61 62 62 59 54 53 52 48 55
68 68 69 70 68 71 78 79 80 81 78 77 77 76 80 76 87 85 84 70 62 63 56 50 44 36 29 21 20 7 6 24 37 47 53 57 59 58 54 52 51 52 53
67 68 67 68 68 73 82 83 83 80 77 76 74 75 78 74 78 79 79 65 65 60 55 48 39 29 20 19 10 10 17 23 31 38 45 45 50 54 53 50 54 52 51
67 64 62 68 67 71 78 81 82 78 75 73 73 74 74 72 71 74 67 61 57 53 46 37 27 21 23 20 13 4 9 16 22 30 36 38 49 48 51 54 53 54 50
61 62 61 63 66 67 73 75 79 76 74 73 72 73 73 71 70 66 54 52 49 43 40 34 27 26 23 21 17 10 3 7 12 26 29 33 39 43 45 48 52 54 51
60 63 64 63 68 64 71 71 71 72 75 75 74 75 75 72 68 61 51 48 43 42 40 36 31 28 26 23 20 16 10 8 14 19 26 29 34 34 40 42 47 50 50
58 64 65 66 66 65 69 68 69 70 75 77 76 72 69 65 63 57 51 50 46 45 42 38 34 31 30 28 25 22 15 10 9 15 20 24 28 30 34 38 41 44 47
63 64 65 68 67 66 64 63 65 70 75 78 74 68 63 58 57 52 52 53 48 46 44 43 38 34 31 28 26 23 18 13 8 6 10 15 21 26 31 33 38 43 44
63 61 64 66 64 65 62 61 61 66 68 76 70 62 60 56 57 51 50 54 51 46 46 47 42 37 33 30 27 24 22 19 15 8 4 5 14 21 27 31 37 35 37
61 61 59 63 63 64 68 68 67 65 61 67 71 67 62 63 58 52 51 49 47 45 51 48 42 38 35 32 29 26 25 24 18 13 8 4 6 16 25 30 30 30 27
60 58 60 60 64 64 71 77 71 65 65 67 67 66 66 66 62 55 51 51 48 47 52 48 44 38 36 34 30 27 26 24 20 18 12 7 6 12 17 20 22 22 16
63 59 61 63 64 61 67 79 70 67 64 64 65 66 66 65 62 55 50 57 47 46 48 47 44 40 37 33 30 29 27 29 30 25 19 13 5 11 12 14 13 14 9
59 60 61 64 64 62 63 70 67 65 62 60 60 64 64 63 64 62 53 53 44 45 45 44 43 40 38 34 31 29 27 34 32 27 23 20 12 7 7 6 7 9 12
54 59 63 62 65 62 62 64 72 69 61 58 56 57 54 56 63 56 57 53 44 42 42 43 42 40 39 36 33 32 32 33 33 28 24 19 14 11 10 8 8 10 14
58 58 61 62 65 66 64 64 65 73 70 61 55 49 54 56 58 55 52 48 46 40 40 41 41 41 40 38 36 33 32 32 33 31 29 22 18 14 12 12 13 13 14
58 57 60 61 61 65 67 65 64 62 72 71 59 51 55 58 58 58 53 49 44 43 39 37 40 40 40 40 38 36 34 34 34 31 28 22 19 16 15 14 11 11 11
58 61 62 61 60 61 64 66 65 61 62 64 52 51 49 50 52 53 55 52 48 45 42 39 38 41 41 39 38 37 35 34 34 34 30 27 22 19 19 17 12 10 9
60 62 63 63 63 60 59 61 63 66 61 55 47 41 43 47 48 45 47 50 51 49 47 40 37 42 43 42 41 40 38 36 32 29 36 31 29 27 26 22 18 12 7
59 61 63 64 63 62 61 60 60 61 64 64 60 55 49 46 51 49 47 45 49 50 50 45 37 39 46 52 51 48 45 43 41 39 33 42 41 37 33 33 28 20 15
59 61 62 62 63 63 63 63 62 61 61 59 58 54 48 43 38 37 42 40 40 48 46 48 44 37 40 45 54 52 49 48 46 45 42 45 51 46 38 37 34 26 21
Wind_Direction
14 15 12 10 9 8 6 6 6 6 5 4 3 4 3 1 1 1 357 353 350 349 347 345 342 341 338 336 333 329 323 317 305 305 303 298 291 283 280 277 274 270 267
15 15 11 10 10 9 8 8 8 6 6 6 6 6 4 3 7 1 356 353 351 351 351 349 348 347 343 341 337 331 325 317 309 297 297 294 288 284 279 274 271 267 261
16 14 13 12 12 9 8 9 9 7 7 9 8 7 6 6 6 1 358 355 355 355 355 354 351 349 345 344 342 337 331 321 309 298 293 291 285 282 275 268 260 259 256
18 16 14 12 12 11 11 11 10 10 11 11 10 9 9 11 6 3 359 358 359 0 1 359 358 357 354 352 351 344 339 328 313 298 289 282 280 276 273 262 258 258 253
18 17 15 15 16 14 13 13 14 15 15 13 12 11 13 12 9 3 1 3 6 7 6 6 7 4 1 356 350 347 342 328 311 292 280 276 269 267 267 271 259 260 258
21 18 18 17 18 17 16 16 17 18 15 15 14 14 16 15 10 4 5 9 12 12 11 11 10 9 4 1 357 349 346 341 334 285 271 266 260 260 267 263 260 259 258
22 20 20 20 21 21 19 20 20 17 16 17 15 18 19 16 10 9 11 14 16 17 15 14 13 12 12 11 2 342 304 230 224 238 247 251 251 255 259 259 261 263 251
23 23 24 24 25 24 21 21 20 19 20 20 21 21 18 18 16 17 16 20 22 19 20 20 20 17 14 4 11 338 241 225 227 229 233 239 242 245 248 251 247 247 247
25 25 27 28 28 27 23 23 23 24 26 26 26 24 22 22 22 21 22 25 25 25 26 27 26 23 0 315 308 270 245 231 221 221 229 229 226 221 228 234 230 230 230
27 30 32 30 32 31 28 28 28 31 32 31 30 29 27 27 26 25 27 30 30 31 34 33 29 359 339 331 329 297 221 229 218 209 215 226 209 211 213 213 214 211 219
34 33 35 35 34 35 33 33 32 34 34 34 33 32 31 31 30 28 25 33 33 35 37 37 35 1 358 354 349 349 233 234 200 182 192 196 196 199 205 206 207 207 211
34 35 35 36 34 37 34 35 36 36 36 35 35 35 34 34 33 30 25 32 29 40 42 45 42 28 29 29 30 16 35 124 155 168 177 184 192 201 201 204 205 208 210
38 36 36 36 36 37 36 37 37 37 37 36 36 37 36 36 36 32 29 36 36 44 48 48 46 46 47 49 38 33 51 71 122 156 167 180 187 197 200 201 204 206 203
39 38 38 36 35 37 39 40 39 38 38 37 37 39 37 37 35 31 35 41 41 46 50 55 55 55 52 45 38 34 39 44 61 109 166 182 188 189 190 192 190 189 187
41 42 40 39 39 39 41 41 42 42 43 40 39 40 39 38 37 33 36 42 44 47 55 59 56 49 42 37 35 35 33 31 30 36 48 160 175 177 174 177 175 180 182
43 43 44 42 42 41 38 39 43 44 49 46 43 44 45 46 43 39 41 44 40 46 59 57 51 48 44 37 33 31 25 21 23 28 32 33 152 163 163 163 169 171 179
44 46 44 45 42 42 35 31 39 45 48 48 46 47 48 48 48 45 43 48 45 48 55 53 51 45 46 44 39 31 20 14 16 19 33 53 110 151 159 161 163 168 177
47 47 45 44 43 45 40 27 40 44 47 48 49 49 49 51 51 49 45 54 44 40 49 50 47 43 44 39 31 26 20 10 6 6 9 12 41 140 146 147 150 157 163
50 48 46 44 45 47 47 39 43 47 49 51 51 50 50 52 53 53 51 52 41 38 40 42 42 42 41 41 37 35 26 8 7 8 10 10 26 98 123 119 136 134 142
54 52 47 46 45 48 49 46 39 45 51 54 54 52 51 54 54 53 54 53 44 37 39 39 36 36 39 41 37 32 20 14 13 16 20 25 39 58 81 93 99 123 128
54 55 51 48 44 45 48 49 47 39 47 55 57 55 55 56 56 56 55 53 49 38 35 39 36 33 35 39 44 38 31 20 14 14 16 23 35 48 55 90 105 111 115
56 57 54 53 51 47 47 51 53 54 43 46 57 59 58 59 58 58 58 57 54 51 45 38 36 33 33 33 34 35 30 22 14 12 12 20 28 44 48 53 77 99 116
60 57 55 55 57 55 53 51 53 57 56 53 60 60 60 60 60 60 60 60 58 57 53 46 33 29 29 32 36 36 33 24 13 8 8 10 16 22 22 30 48 68 93
60 59 57 58 58 61 61 59 57 55 59 62 65 65 63 62 62 61 61 62 62 62 60 53 42 19 21 23 26 28 29 26 26 21 10 10 10 8 10 16 21 31 62
62 61 60 60 60 62 64 65 65 64 62 63 65 66 66 65 64 63 62 63 64 64 64 60 44 24 14 12 13 15 17 20 21 19 17 10 10 10 10 10 10 14 21
63 63 63 63 63 64 66 67 69 69 67 67 66 67 67 64 61 62 62 62 62 65 63 64 60 45 23 15 9 10 12 13 16 17 17 14 13 11 9 9 8 8 9